Theta_e
267 267 267 267 268 268 268 268 268 268 268 268 268 268 268 268 268 268 268 268 268 268 269 269 269 269 269 269 269 269 270 270 270 271 271 272 272 273 274 274 275 276 277 278 279 279 279 280 280 280 280 280 280 281 281 282 283 284 284 285 286 286 287 287 288 288 288 288 288 288 288 289 289 289 289 289 289 289 289 290 290 291 292 292 292
267 267 267 267 267 267 268 268 268 268 268 268 268 268 268 268 268 268 268 268 268 268 268 268 268 269 269 269 269 269 269 269 270 270 271 271 272 272 273 273 274 275 276 277 278 279 279 279 280 280 280 280 280 280 281 281 282 283 284 285 286 286 286 287 287 287 288 288 288 288 288 289 288 288 289 289 289 289 289 289 289 290 291 292 292
267 267 267 267 267 267 267 268 268 268 268 268 268 268 268 268 268 268 268 268 268 268 268 268 268 268 268 269 269 269 269 269 269 270 270 271 271 272 272 273 274 274 275 276 278 278 279 279 279 279 280 280 280 280 280 281 282 283 284 285 285 286 286 287 287 287 288 288 288 288 288 288 288 288 288 289 289 289 289 289 288 289 290 290 291
266 266 266 266 267 267 267 268 268 268 268 268 268 268 268 268 268 267 267 267 268 268 268 268 268 268 268 268 269 269 269 269 269 270 270 271 271 271 272 272 273 273 274 275 277 278 278 278 279 279 279 280 280 280 280 281 281 282 283 284 285 286 286 286 287 287 288 288 287 288 288 288 288 288 287 288 289 289 289 288 288 287 288 289 289
266 266 266 266 267 267 267 267 267 268 267 267 267 267 267 267 267 267 267 267 267 268 268 268 268 268 268 268 269 269 269 269 269 270 270 271 271 271 272 272 272 273 274 275 276 277 278 278 278 278 278 279 279 280 280 281 282 282 283 284 285 285 286 286 286 287 287 288 288 288 288 288 288 287 287 287 288 288 288 288 287 287 287 287 288
265 265 266 266 266 267 267 267 267 267 267 267 267 267 267 267 267 267 267 267 267 267 268 268 268 268 268 268 269 269 269 269 269 269 270 271 271 271 272 272 272 273 274 275 276 276 277 277 277 277 277 277 278 279 279 280 282 282 283 284 284 285 286 286 286 287 287 287 288 288 288 288 288 287 286 287 288 287 287 287 286 286 286 286 287
265 265 265 266 266 267 267 267 267 267 267 267 267 267 267 267 267 267 267 267 267 267 268 268 268 268 268 269 269 269 269 269 269 270 270 270 270 271 271 271 272 272 273 274 274 275 275 276 276 276 276 277 277 277 278 279 281 282 282 283 284 285 285 286 286 286 287 287 287 288 287 287 288 287 286 286 287 286 286 286 286 286 286 286 286
265 265 265 266 266 266 266 266 266 267 266 266 266 266 266 266 266 267 267 267 267 267 267 268 268 268 268 269 269 269 269 269 269 270 270 270 270 270 271 271 271 272 272 273 273 273 274 274 275 275 275 276 276 276 277 278 280 282 283 283 284 284 285 286 286 286 287 287 287 287 287 287 287 287 286 285 285 285 285 286 286 286 286 286 286
265 265 265 265 266 266 266 266 266 266 266 266 266 266 266 266 266 266 266 267 267 267 268 268 268 268 268 269 269 269 269 269 269 270 270 270 270 270 270 270 271 271 271 272 272 272 273 273 274 274 275 275 276 276 276 277 278 280 282 283 284 284 285 285 286 286 286 287 287 287 287 287 287 287 286 285 284 285 286 285 285 286 286 286 285
264 265 265 265 265 265 265 266 266 266 266 266 265 265 266 266 266 266 266 267 267 267 268 268 268 268 269 269 269 269 269 269 270 270 270 270 270 270 270 270 270 271 271 271 271 271 272 272 273 273 274 275 276 276 276 277 278 279 280 282 283 284 285 285 286 286 286 287 287 287 287 287 287 287 287 286 285 285 285 285 285 285 286 285 285
264 264 264 265 265 265 265 265 265 265 265 265 265 265 265 265 266 266 266 267 267 267 268 268 269 269 269 269 269 269 269 270 270 271 271 272 272 271 271 270 270 271 271 271 271 271 271 272 272 273 274 274 275 276 276 277 277 278 279 281 282 283 285 285 285 285 286 286 287 287 287 287 287 287 287 287 286 285 285 285 285 285 285 285 285
264 264 264 264 264 265 265 265 265 265 265 265 265 265 265 265 266 266 266 267 267 268 268 268 269 269 269 269 269 270 270 270 271 271 272 272 273 273 272 272 271 271 271 271 271 271 271 272 272 273 273 274 275 276 276 276 277 278 279 280 281 282 283 284 285 286 286 286 286 286 287 287 287 287 287 287 287 286 285 285 285 285 285 285 286
263 264 264 264 264 264 264 264 264 264 264 264 264 265 265 265 265 266 266 267 267 268 268 269 269 269 269 270 270 270 270 270 271 272 273 273 274 274 274 273 272 272 272 272 272 272 272 272 273 273 273 274 275 276 276 276 277 278 279 279 280 281 282 283 284 285 285 286 286 286 286 286 287 287 287 287 287 286 286 285 285 285 285 285 285
263 263 263 264 264 264 264 264 264 264 264 264 264 264 265 265 265 266 266 267 268 268 269 269 270 270 270 270 270 270 271 271 271 272 273 274 274 275 275 274 274 273 273 273 273 273 273 273 274 274 274 275 276 276 277 277 277 278 279 279 280 281 282 283 284 284 285 285 286 286 286 286 287 287 287 287 286 286 286 286 286 285 285 285 286
263 263 263 263 263 263 263 263 263 263 263 264 264 264 265 265 266 266 267 267 268 269 269 270 270 271 271 271 271 271 272 272 273 273 274 275 275 275 275 275 275 274 274 274 273 273 273 274 274 275 275 276 276 277 277 278 278 278 279 279 280 281 282 283 283 284 284 285 285 286 286 286 286 286 286 286 286 286 286 286 286 286 285 285 285
263 263 263 263 263 263 263 263 263 263 263 264 264 264 265 265 266 266 267 268 269 269 270 271 271 272 272 272 272 272 274 274 274 275 275 276 276 276 276 276 276 276 275 275 274 274 274 274 275 275 275 276 277 277 278 279 279 279 279 280 280 281 282 283 284 284 284 284 285 285 285 285 285 285 286 286 286 286 286 285 285 285 285 285 285
262 262 262 262 262 262 262 262 263 263 263 264 264 264 265 265 266 266 267 268 269 270 271 271 272 272 273 273 273 274 275 276 276 276 276 277 277 277 277 277 277 277 276 276 276 275 275 275 275 276 276 276 277 277 278 279 280 280 280 280 280 281 281 282 284 284 285 285 285 285 285 285 285 285 285 286 286 286 286 285 285 285 285 285 285
262 262 262 262 262 262 262 262 263 263 263 264 264 264 265 265 266 267 268 269 269 270 271 272 273 273 274 274 275 275 276 277 278 277 277 278 278 278 278 278 278 278 278 278 277 277 277 277 276 276 277 277 277 277 278 279 279 280 280 280 280 281 281 282 283 284 284 285 285 285 285 285 285 285 285 285 285 285 285 285 285 285 285 285 285
261 261 261 261 261 262 262 262 263 263 263 263 264 264 264 265 266 267 268 269 270 271 272 273 273 274 275 276 277 277 278 279 279 279 279 279 279 279 279 279 279 279 279 279 279 279 278 278 278 278 278 278 278 278 279 279 279 280 281 280 281 281 281 281 282 283 284 284 284 284 284 284 284 284 284 284 285 285 285 285 285 285 284 284 285
261 261 261 261 261 262 262 262 262 263 263 263 264 264 265 265 266 267 268 270 270 271 272 273 274 275 276 277 279 279 280 280 280 280 280 280 280 280 279 279 280 280 280 280 280 280 280 280 280 279 279 279 279 279 279 279 279 280 280 281 281 281 281 281 282 282 283 283 283 283 283 283 283 283 283 283 284 285 285 285 285 285 285 284 284
260 260 261 261 261 261 261 262 262 262 263 263 264 264 265 266 267 268 269 270 271 272 273 274 275 276 277 278 279 280 280 281 281 281 281 281 281 280 280 280 280 280 280 280 280 280 280 280 281 281 281 281 280 280 280 280 280 280 280 281 281 281 281 282 282 282 283 283 283 283 283 283 283 283 283 284 285 285 285 285 285 285 285 284 284
260 260 260 261 261 261 261 262 262 262 263 263 264 265 265 266 267 268 269 271 272 273 274 275 276 277 277 278 279 280 280 280 281 281 280 280 281 281 281 280 280 280 280 280 280 280 280 280 280 281 281 282 282 281 281 281 280 280 280 281 281 281 281 282 282 283 283 283 283 284 284 284 284 284 284 285 285 285 285 285 284 284 284 284 284
260 260 260 260 260 261 261 261 262 263 263 264 264 265 266 267 268 269 270 271 272 273 274 275 276 276 277 278 278 279 279 279 280 279 279 280 280 280 280 280 280 280 280 280 281 281 281 280 280 280 281 281 282 282 282 282 281 280 280 281 282 282 281 281 282 283 283 284 284 284 284 284 284 285 285 285 286 285 285 284 284 284 284 284 284
259 259 259 260 260 260 261 262 262 263 263 264 265 265 266 267 268 269 270 271 272 273 274 275 275 276 277 277 278 278 278 278 279 278 278 279 279 280 280 280 280 280 280 280 280 281 281 281 281 281 281 281 282 283 283 282 282 281 281 281 282 282 282 282 283 283 283 283 284 284 284 284 284 285 285 285 285 285 285 284 284 284 284 284 284
259 259 259 260 260 260 261 262 263 263 264 264 265 266 267 268 268 269 270 271 272 273 274 274 275 276 276 276 277 277 277 278 278 277 277 278 278 279 279 279 279 279 279 280 280 280 281 281 281 281 281 281 281 282 282 282 282 282 282 282 282 282 283 283 283 283 283 283 284 284 284 284 284 285 285 285 285 285 284 284 284 283 283 283 283
258 259 259 259 260 261 262 263 263 264 264 265 265 266 267 268 268 269 270 271 272 273 273 274 275 275 275 276 276 276 277 277 277 277 277 277 277 278 279 279 278 278 279 279 280 280 280 280 281 281 281 281 281 281 281 282 282 283 283 283 283 283 283 283 283 284 284 284 283 284 284 284 284 285 285 285 285 285 284 284 283 283 282 282 282
258 258 259 259 260 261 262 263 263 264 264 265 265 266 267 267 268 269 270 271 272 273 273 274 274 274 275 275 275 276 276 276 276 276 276 276 277 277 278 278 277 277 278 278 279 279 279 279 280 280 281 281 281 281 281 282 282 283 283 283 283 283 283 284 284 284 284 284 284 284 284 284 284 285 285 285 285 284 284 284 283 282 282 281 281
258 258 259 260 261 262 263 263 263 264 264 265 265 266 267 267 268 269 270 271 272 272 273 273 274 274 274 274 274 275 275 275 275 275 275 276 276 277 277 277 276 277 277 278 278 278 279 279 280 280 281 281 281 281 281 281 282 282 282 283 283 283 283 284 284 284 284 284 284 284 284 284 284 284 285 284 284 283 283 283 283 282 281 281 280
258 258 259 260 261 262 262 263 263 263 264 265 265 266 267 267 268 269 270 271 272 272 272 273 273 273 273 273 273 274 274 274 274 275 275 275 276 276 276 276 276 276 276 277 277 278 278 279 279 279 280 280 281 281 282 282 282 282 282 282 283 283 284 284 284 285 285 284 284 284 284 284 284 284 284 283 282 282 282 282 282 281 280 280 279
258 259 259 260 261 262 262 263 263 263 264 265 265 266 267 267 268 269 270 271 271 271 272 272 272 272 272 272 272 273 273 273 274 274 274 274 275 275 275 275 275 275 276 276 277 277 277 277 277 277 278 278 278 278 279 280 281 281 282 282 283 283 284 284 284 285 285 284 284 284 284 283 283 283 283 282 281 281 281 281 281 280 279 279 279
258 259 259 260 261 262 262 263 263 263 264 265 265 266 266 267 268 269 270 270 270 271 271 271 271 271 271 271 271 271 272 272 273 273 273 273 274 274 275 275 275 275 275 276 276 275 275 276 275 275 275 276 276 276 276 277 277 278 279 281 282 282 283 283 283 284 284 284 284 284 283 283 283 282 282 281 280 280 280 280 280 279 279 279 279
257 258 259 260 261 261 262 263 263 264 264 265 265 266 266 267 267 268 269 269 269 270 270 270 270 270 270 270 270 270 271 271 272 272 272 273 273 273 274 274 274 274 274 274 274 274 274 274 274 274 274 274 274 274 274 275 275 275 276 277 279 280 281 282 282 283 284 284 284 284 283 283 282 282 282 281 280 280 279 279 279 279 279 279 279
257 258 259 260 261 261 262 263 263 264 264 264 265 265 266 267 267 267 268 268 268 268 268 269 269 268 268 268 269 269 270 270 271 271 271 272 272 272 273 273 273 273 273 272 272 272 272 272 272 272 272 272 273 273 273 273 273 274 274 274 275 276 278 279 281 281 282 283 283 283 283 283 282 282 281 280 280 279 279 278 278 278 279 279 278
257 258 259 260 261 261 262 263 263 264 264 264 265 265 266 266 267 267 267 267 267 267 267 267 267 267 267 267 267 268 269 269 270 270 270 270 271 271 272 272 272 272 271 271 270 270 270 270 270 270 270 271 271 271 272 272 272 273 273 273 273 274 275 276 278 279 280 281 282 283 283 282 282 282 281 280 279 279 279 278 278 278 278 278 276
257 258 259 260 261 261 262 262 263 264 264 264 264 265 265 266 266 266 266 266 266 266 266 265 265 265 265 265 266 267 268 268 268 269 269 269 269 270 270 270 270 270 269 269 270 270 269 269 269 269 269 269 270 270 271 271 271 272 272 272 272 273 273 274 274 276 277 279 280 282 282 282 282 281 281 279 279 279 278 278 278 278 278 277 276
257 259 260 260 261 261 261 262 263 263 263 264 264 265 265 266 266 266 265 265 265 265 265 264 264 264 264 264 264 265 266 267 267 267 267 267 267 267 267 267 267 268 268 267 268 269 269 268 268 268 268 268 269 269 270 270 271 271 271 272 272 272 272 272 273 274 275 276 278 279 280 280 280 280 280 279 278 278 278 278 278 278 277 277 275
258 259 260 260 260 260 261 262 263 263 263 264 264 264 265 265 265 265 265 265 264 264 264 264 263 263 263 263 263 264 265 265 265 266 266 266 265 265 264 265 265 266 266 266 266 267 268 268 268 267 268 268 268 268 269 269 270 270 271 271 271 272 272 272 272 272 273 274 275 276 277 277 278 278 278 278 277 277 277 277 277 277 276 276 275
258 259 259 259 260 260 261 262 263 263 263 263 264 264 264 264 264 264 264 264 264 263 263 263 263 263 262 262 263 263 263 263 263 264 264 264 264 263 263 263 263 263 264 264 264 264 265 266 266 266 267 267 267 267 267 268 269 269 270 270 271 271 272 271 271 272 272 272 273 273 274 275 275 275 276 276 275 275 275 275 275 275 274 274 274
258 259 259 259 260 260 261 262 262 262 263 263 263 263 263 263 263 263 263 264 263 263 263 263 262 262 262 262 262 263 262 262 262 262 262 262 262 261 261 262 262 262 262 262 262 262 263 264 265 265 265 265 265 265 266 266 267 268 269 269 270 271 271 271 271 271 271 272 272 272 272 273 273 274 274 274 274 274 274 273 273 273 273 272 272
258 258 259 259 260 260 261 262 262 262 262 262 263 263 263 263 263 263 263 263 263 262 262 262 262 261 261 262 262 262 262 261 261 261 261 261 261 261 261 261 261 261 261 261 260 260 261 262 262 263 263 263 264 265 265 265 266 267 268 269 269 269 270 270 270 270 271 271 271 271 272 272 272 273 273 273 273 273 272 272 272 272 272 272 272
257 258 258 259 259 260 261 261 262 262 262 262 262 262 262 262 262 262 262 262 262 262 262 262 261 261 261 261 262 262 261 260 260 260 260 260 260 260 260 260 260 260 260 260 259 259 260 260 261 261 262 262 263 264 265 265 266 266 267 268 268 269 269 269 269 269 269 270 270 271 271 271 271 271 272 272 272 272 272 271 271 271 271 271 271
257 257 258 258 259 260 260 261 261 261 261 261 262 262 262 262 262 262 262 261 261 261 261 261 261 260 260 260 261 261 260 260 260 260 259 259 259 259 259 259 259 259 259 259 259 259 259 259 260 260 261 261 262 263 264 265 266 266 266 267 267 268 268 268 268 268 269 269 269 269 270 270 270 270 271 271 271 271 271 270 270 270 270 270 269
256 257 257 258 259 260 260 260 260 261 261 261 261 261 261 261 261 261 261 261 261 261 261 261 260 260 260 260 259 259 259 259 259 259 259 259 259 259 259 259 259 259 259 259 259 259 259 258 259 259 260 261 262 263 263 264 265 266 266 266 266 267 268 267 267 268 268 268 269 269 269 270 270 270 270 270 270 270 270 270 270 270 269 269 269
256 257 257 258 259 259 260 260 260 260 260 260 261 261 261 261 261 261 261 261 261 260 260 260 260 260 259 259 259 259 258 258 258 258 258 258 258 258 258 258 258 259 259 259 259 259 259 259 259 259 260 261 262 263 263 263 264 265 266 266 266 267 268 268 268 268 268 268 269 270 270 270 270 270 270 270 270 270 269 269 269 269 268 268 268
256 256 257 258 258 259 259 259 259 259 259 260 260 261 261 261 261 260 260 260 260 260 260 260 259 259 259 259 258 258 258 258 258 258 258 258 258 258 258 259 259 259 259 259 260 260 260 260 259 259 259 260 261 263 263 264 264 265 265 266 266 267 268 269 269 269 269 269 270 271 271 271 271 270 270 270 270 270 269 269 269 269 268 267 267
256 256 256 257 258 258 258 258 258 258 259 259 259 260 260 260 260 260 260 260 260 260 259 259 259 259 259 258 258 258 258 257 258 257 257 257 258 258 259 260 260 260 260 259 260 261 261 261 261 260 260 260 261 262 263 263 264 264 265 265 266 267 268 268 269 270 270 270 271 271 271 271 271 271 271 271 271 271 270 270 270 270 269 269 268
256 255 256 256 257 257 257 257 258 258 258 258 259 259 259 259 260 260 260 259 259 259 259 259 259 258 258 258 258 257 257 257 257 257 257 257 258 258 259 260 260 261 261 260 261 261 261 261 261 261 261 261 261 261 262 263 263 264 265 265 266 267 267 268 269 269 270 270 270 271 271 272 272 271 271 271 271 271 271 270 270 270 270 269 269
256 255 255 256 256 257 257 257 257 257 257 258 258 258 258 258 259 259 259 259 259 259 259 258 258 258 258 258 257 257 257 257 257 257 256 257 257 258 259 259 260 260 261 261 261 261 261 261 262 262 262 262 262 262 262 262 263 264 264 265 266 266 267 268 268 269 269 270 270 270 271 271 271 271 271 271 271 271 271 270 270 270 269 269 269
256 256 255 255 256 256 256 256 256 256 257 257 257 257 257 257 258 258 258 258 258 258 258 258 258 258 258 257 257 257 257 256 256 256 256 256 256 257 258 259 259 260 260 260 261 261 261 262 262 262 262 262 263 263 262 262 263 263 264 264 265 265 266 267 268 268 269 269 270 270 270 270 270 270 270 270 270 270 270 270 269 269 269 269 268
256 256 255 255 255 255 255 255 255 256 256 256 256 256 256 256 257 257 257 257 257 257 257 257 257 257 257 257 257 257 256 256 256 256 256 256 256 256 257 257 258 259 259 260 260 261 261 261 262 262 262 262 262 263 263 263 263 263 263 264 264 265 266 266 267 268 268 269 269 269 269 269 270 270 270 269 269 269 269 269 269 269 268 268 268
256 256 255 255 255 255 255 255 255 255 255 255 255 256 256 256 256 256 256 256 256 256 256 256 256 256 256 256 256 256 256 256 255 255 255 255 255 256 256 256 257 257 258 259 259 260 261 261 261 261 262 262 262 262 262 262 263 263 263 264 264 265 265 266 266 267 267 267 268 268 268 269 269 269 269 269 269 269 269 268 268 268 268 268 267
Wind_Speed
21 21 20 20 20 21 21 22 21 21 21 21 22 23 23 23 23 23 23 23 23 23 23 23 23 22 22 22 22 22 22 22 21 21 21 21 20 19 19 19 19 19 19 19 19 19 19 18 18 16 15 14 15 16 17 18 20 21 21 21 20 20 20 18 13 12 17 21 21 20 20 17 15 17 19 19 19 19 20 22 22 24 26 30 34
21 21 20 20 21 22 22 21 21 21 22 22 22 22 22 23 23 23 23 23 23 23 23 23 23 22 22 22 22 22 22 21 21 21 22 23 22 21 20 20 21 20 20 20 20 19 19 19 18 17 16 16 16 17 18 19 20 21 22 21 21 21 21 21 17 14 15 19 20 19 19 19 18 18 21 22 22 22 22 22 23 23 25 26 30
21 21 21 21 22 22 22 21 21 22 22 22 22 22 23 23 23 23 23 23 23 23 23 23 23 23 23 23 23 22 22 22 21 21 22 23 23 23 22 22 22 20 20 21 21 20 20 19 18 18 17 17 16 17 19 21 21 21 22 22 22 22 23 23 22 18 16 18 19 18 18 18 17 17 20 22 21 21 22 23 23 23 24 25 27
22 22 22 22 23 22 22 22 22 22 22 22 23 23 23 23 23 23 23 23 23 23 23 23 23 23 23 23 22 22 22 21 21 21 22 22 23 24 23 23 23 22 21 22 22 21 20 19 18 17 16 15 15 16 19 21 22 22 23 23 23 23 23 23 24 22 19 18 18 19 19 19 17 16 17 20 20 20 22 22 23 23 23 24 26
23 23 23 23 23 23 23 22 22 22 23 23 23 23 23 23 23 23 23 24 23 23 23 22 22 22 22 22 22 22 22 21 21 21 21 21 21 22 22 22 22 22 23 23 23 23 22 20 18 18 17 16 16 17 19 21 22 22 23 23 23 23 23 23 24 24 22 19 18 19 20 20 17 14 15 19 19 19 20 21 22 23 23 23 25
23 24 24 24 24 23 23 23 23 23 24 24 23 23 23 23 24 24 23 24 24 23 23 22 22 22 22 22 22 22 22 22 22 22 21 20 20 20 20 19 18 18 19 20 19 21 22 20 19 19 19 18 17 17 20 21 23 24 24 23 23 23 23 23 24 24 23 21 19 19 20 19 17 14 16 19 20 18 18 18 19 21 22 23 24
24 24 24 24 24 24 24 23 24 24 24 24 24 24 24 24 24 24 23 23 24 24 23 22 22 22 22 22 22 22 22 21 22 22 22 21 21 21 21 20 19 17 18 17 17 17 18 18 18 18 18 19 18 19 21 22 23 26 26 25 25 25 24 23 23 23 22 20 19 19 19 19 17 15 14 17 18 17 16 14 13 17 21 22 24
24 24 24 24 24 24 24 24 24 25 25 25 25 25 25 24 24 23 23 23 23 23 23 23 22 22 21 22 21 21 22 22 22 23 23 23 22 22 22 22 21 20 19 19 19 19 19 19 20 20 21 22 22 22 23 22 23 24 25 26 27 27 26 24 22 22 22 20 19 19 19 19 18 15 12 11 12 15 18 17 14 14 17 20 22
24 24 24 24 24 24 25 25 25 26 25 25 26 26 25 24 23 23 23 23 22 21 22 22 22 22 22 22 22 22 22 22 23 23 24 24 24 24 23 23 23 23 23 22 22 24 24 24 24 24 24 25 25 25 25 25 24 24 23 25 28 28 28 26 23 21 20 19 18 19 18 18 18 16 13 12 14 17 18 18 17 15 14 16 19
23 24 24 24 24 25 25 25 26 26 26 26 26 26 26 24 23 23 24 25 23 22 22 21 20 20 21 21 22 22 22 23 23 24 24 24 24 24 23 23 23 23 25 25 25 27 28 29 28 27 26 27 26 27 28 28 27 27 26 26 26 26 27 26 23 20 18 17 18 18 16 15 16 16 15 15 17 17 15 15 18 18 12 10 13
23 24 24 24 25 25 25 25 27 27 27 26 26 26 25 23 23 25 25 25 24 22 21 20 20 20 20 21 21 21 22 23 24 24 25 25 25 24 22 22 22 22 23 24 25 26 28 29 30 29 28 29 28 28 29 29 28 29 29 28 28 26 25 24 23 22 19 18 18 18 15 14 14 15 15 16 16 15 16 18 19 16 11 8 8
23 23 24 25 24 25 25 26 27 27 27 26 26 26 25 24 26 26 26 25 23 22 22 21 22 21 21 22 22 22 23 24 24 25 26 25 25 23 22 21 21 22 22 23 23 23 24 26 28 29 29 28 28 28 30 30 29 28 28 28 29 29 28 25 23 21 20 19 19 19 17 14 14 14 14 15 15 15 17 18 18 17 16 13 11
23 23 24 24 24 25 25 26 27 28 27 26 26 26 27 27 28 27 26 26 24 23 24 24 24 23 23 24 24 25 26 25 25 26 26 26 25 24 23 22 22 22 22 22 22 22 22 23 24 27 27 27 26 26 28 30 29 27 26 26 27 28 30 30 27 24 24 22 18 18 17 15 14 14 15 15 16 16 16 17 18 19 19 19 20
22 23 23 23 24 25 25 26 27 28 27 26 26 27 28 29 28 27 26 25 24 24 24 24 24 24 24 24 25 26 27 25 24 24 25 24 24 24 23 22 22 23 22 22 23 23 22 22 22 23 24 24 25 25 26 28 28 27 26 26 26 26 27 29 30 30 30 28 23 18 16 14 14 14 14 16 18 19 18 18 18 20 21 23 23
22 22 22 23 24 24 25 26 27 28 28 27 26 27 27 28 29 28 26 24 23 23 23 24 25 25 24 23 24 25 26 24 22 22 23 22 21 21 22 22 23 25 24 24 25 24 23 23 22 22 22 22 23 23 24 25 26 26 26 25 25 25 25 27 29 31 32 32 29 25 22 20 18 17 17 17 18 18 19 19 18 18 19 18 15
21 22 22 23 24 24 25 26 27 27 28 27 26 27 27 27 28 28 26 25 24 23 23 24 25 25 24 22 22 25 26 23 20 20 20 19 18 18 19 20 22 24 25 25 26 27 26 25 24 23 22 22 23 23 23 24 24 25 25 25 24 24 24 26 27 29 30 30 30 29 27 25 23 22 21 18 17 17 17 19 19 17 14 11 9
21 22 23 24 24 25 25 26 27 27 27 27 27 27 27 28 27 26 25 25 25 24 24 24 23 22 22 21 21 24 26 24 19 17 17 17 16 16 16 18 19 23 26 27 28 29 30 30 29 27 25 24 24 25 24 24 25 25 25 24 23 23 23 24 24 25 27 28 27 27 27 27 25 24 23 21 20 19 16 17 18 16 12 9 8
21 22 23 24 25 25 25 26 26 27 28 27 27 27 28 28 27 24 23 24 25 25 25 25 23 22 21 20 20 23 25 24 21 17 16 14 14 15 16 16 18 19 22 26 29 30 31 32 32 31 30 30 29 27 25 25 26 25 24 24 22 21 21 22 22 22 24 24 24 23 23 24 25 25 24 23 23 21 18 17 17 16 13 10 10
22 23 24 25 25 25 25 25 26 27 27 27 27 28 28 27 26 25 23 23 24 24 23 24 26 27 26 23 21 21 22 21 19 15 13 12 11 13 13 14 16 16 17 19 23 27 30 31 31 32 33 34 33 30 27 26 26 25 24 23 21 21 21 22 21 21 20 21 21 21 21 21 22 23 23 24 23 22 21 20 18 17 16 15 14
23 24 24 24 25 25 25 25 25 26 27 28 28 27 26 26 26 25 25 23 22 23 23 24 27 28 27 24 22 20 18 15 14 12 10 10 10 11 11 12 13 14 15 15 16 18 21 24 27 28 30 32 33 32 29 28 27 26 24 22 20 21 22 23 21 20 18 18 19 19 20 19 19 19 21 22 23 22 22 21 18 18 20 18 15
23 23 24 25 25 25 26 25 25 26 26 26 27 27 26 25 25 25 25 23 22 23 24 24 24 24 24 23 21 20 19 15 11 11 11 10 10 10 11 13 13 14 15 15 15 15 16 17 19 21 22 25 29 31 31 29 27 26 25 23 22 21 21 20 20 20 19 18 18 18 18 18 18 18 18 20 21 22 22 21 20 19 20 19 16
22 23 24 25 26 26 26 25 25 25 25 24 25 26 26 24 24 23 23 23 24 25 24 22 21 21 21 21 19 19 21 19 15 15 16 16 14 12 9 9 11 12 14 15 15 16 16 16 16 17 18 20 23 26 29 29 27 26 26 25 23 23 22 20 18 18 18 18 17 16 16 17 17 17 18 18 20 21 21 20 20 19 19 19 18
22 23 24 25 26 26 26 26 25 24 23 23 24 24 24 23 22 22 22 23 24 23 21 20 20 20 19 19 18 18 19 19 17 18 20 19 18 17 14 13 13 12 12 13 14 15 16 16 16 16 17 18 18 21 25 27 26 25 26 26 24 24 24 21 19 17 17 17 16 16 16 16 16 17 18 19 21 21 20 17 17 19 19 18 19
22 23 24 25 26 26 26 26 25 23 22 23 22 22 22 22 21 20 20 21 20 19 20 20 19 19 19 19 19 18 18 18 17 18 20 20 19 18 16 16 15 14 13 13 13 13 15 15 15 15 16 17 16 15 17 21 24 25 25 25 25 24 22 20 19 18 17 16 17 17 17 18 18 17 18 19 20 20 19 16 15 18 19 18 18
23 24 25 25 26 26 25 24 22 21 21 22 20 20 20 20 19 18 19 19 18 17 19 19 18 18 18 18 18 19 18 18 17 18 20 21 20 19 18 17 16 16 15 14 13 13 14 15 15 16 16 17 17 15 13 14 18 23 25 26 25 24 21 19 19 19 18 18 18 19 19 19 19 19 19 19 20 19 18 18 17 17 17 17 16
25 25 25 25 24 24 23 21 20 21 21 19 18 17 18 18 18 18 18 18 16 17 19 19 18 18 18 18 18 19 18 18 17 18 21 21 20 20 19 17 16 17 16 15 14 14 14 14 14 14 14 15 16 15 14 12 11 15 19 22 23 25 24 22 22 21 19 19 19 20 20 19 19 19 19 20 21 22 21 20 19 18 17 16 16
26 26 26 25 23 21 20 20 20 21 20 18 16 16 16 16 16 17 18 17 16 17 18 17 17 17 18 18 18 18 18 17 18 20 22 22 22 21 18 17 17 16 15 14 13 13 14 14 13 13 13 13 13 14 14 13 11 11 13 14 16 20 22 23 25 25 22 20 20 19 18 18 17 18 20 22 22 23 23 22 21 19 18 17 15
26 27 26 23 21 20 19 19 20 20 20 19 17 16 16 16 15 16 17 17 16 17 17 16 16 17 17 17 17 18 17 17 18 22 23 23 23 21 18 17 17 15 14 15 14 14 13 13 11 10 9 10 11 12 13 13 13 12 12 12 13 15 17 19 23 26 25 21 19 18 17 17 17 18 21 22 22 23 23 23 21 19 19 18 14
25 25 24 21 19 18 18 18 18 19 19 20 19 17 16 16 16 17 17 16 16 18 18 16 16 18 17 16 16 18 17 17 20 23 24 23 23 20 17 17 17 16 15 14 13 11 9 8 7 6 6 7 8 8 9 11 12 13 14 14 13 13 14 14 16 22 25 23 21 19 19 18 18 19 20 19 20 22 24 22 20 19 20 19 14
24 23 21 20 19 18 18 18 18 18 18 19 20 20 18 16 15 15 16 17 17 17 16 15 17 18 17 16 17 17 18 19 22 23 23 23 22 18 16 16 17 15 13 11 8 6 6 6 6 7 7 8 8 8 7 5 5 8 11 13 14 14 13 11 11 15 21 23 22 21 21 21 20 21 20 18 18 20 22 21 19 19 21 19 14
22 21 21 20 20 19 18 18 18 17 17 17 18 21 22 21 18 15 15 18 19 17 14 14 17 18 18 18 19 19 19 21 22 22 23 23 21 18 15 16 17 14 10 7 7 7 8 7 7 8 8 8 8 9 9 9 8 7 6 5 7 9 10 9 8 9 15 20 21 21 22 22 21 20 20 19 19 19 19 19 19 21 21 18 14
21 21 21 20 20 19 18 17 17 16 17 17 17 17 19 21 22 21 19 18 18 17 15 15 17 19 19 19 20 21 21 21 22 22 22 22 21 18 13 13 16 13 8 8 9 9 9 8 8 9 9 8 8 9 9 9 9 8 8 6 4 4 5 6 6 7 9 13 18 22 22 21 21 20 20 20 19 18 17 18 19 20 19 15 13
22 21 20 19 20 19 17 16 16 15 15 16 16 16 16 17 20 23 23 21 18 16 14 15 17 20 20 20 21 22 23 22 22 22 22 22 21 17 12 11 13 14 12 12 11 10 10 9 9 10 9 9 9 9 8 8 8 7 7 6 5 6 7 9 9 10 11 10 12 21 23 20 20 20 19 20 20 19 17 17 17 17 16 13 12
21 20 18 18 19 18 17 16 15 15 15 15 15 16 16 16 17 19 21 22 21 19 18 17 18 21 22 21 23 24 23 23 22 21 22 22 19 14 10 9 11 14 15 14 12 11 11 10 10 10 10 10 10 9 9 8 8 7 6 5 5 5 6 7 7 10 14 12 8 13 19 19 19 20 19 20 20 19 18 18 17 16 15 14 13
18 17 16 16 17 17 16 16 15 14 15 15 15 15 16 16 16 16 17 17 18 20 20 20 21 22 22 22 25 26 24 23 22 21 22 22 17 13 12 12 13 14 15 14 12 11 11 11 11 11 11 11 11 10 9 9 8 8 7 6 6 6 5 5 4 5 10 10 9 11 14 16 18 19 20 21 21 20 19 19 19 18 17 16 15
17 16 15 14 15 16 17 16 14 14 15 15 15 15 15 15 15 15 15 15 15 16 18 20 22 22 21 22 25 27 25 23 22 20 20 20 18 17 16 15 15 14 14 14 13 11 11 10 10 11 11 11 12 11 10 9 8 8 8 7 7 7 6 5 4 3 3 5 8 10 12 14 16 17 19 20 20 19 19 20 19 19 19 18 17
17 15 14 15 16 17 17 15 14 14 14 13 13 13 14 14 14 14 14 14 15 15 16 19 21 21 22 24 27 28 26 22 20 19 19 20 22 22 19 16 15 14 14 14 14 13 12 11 12 11 11 11 12 12 11 10 10 9 8 7 6 6 6 6 5 4 2 1 3 6 9 11 13 15 16 16 16 15 16 17 16 16 18 20 19
15 14 14 15 16 17 16 15 14 13 12 12 12 13 13 13 13 13 13 14 14 15 15 17 18 19 20 24 27 27 25 23 23 24 24 24 24 23 20 17 16 15 14 15 16 15 13 13 13 13 13 13 13 13 12 11 11 10 9 8 6 5 5 5 6 5 4 3 3 3 5 7 9 11 13 14 14 14 15 16 16 15 17 19 19
14 14 15 15 15 15 15 14 14 13 12 11 11 12 12 12 13 13 13 14 14 14 14 15 16 16 17 21 26 27 24 22 22 23 22 22 22 21 19 17 17 16 16 17 18 17 15 14 14 14 14 14 14 14 13 12 11 11 9 8 7 6 6 5 5 5 5 4 4 4 4 5 6 8 10 12 13 15 15 16 16 17 17 17 17
15 15 15 14 14 14 14 13 12 12 12 11 11 11 11 12 12 12 13 13 13 14 14 14 14 15 16 20 24 24 20 17 18 18 18 18 18 19 19 18 18 18 18 18 20 20 19 17 16 15 15 16 16 15 14 13 11 10 10 9 8 7 6 6 5 4 4 4 5 5 5 5 5 6 8 10 12 14 15 15 15 16 17 17 17
15 15 15 13 13 13 13 12 11 11 11 11 10 10 10 11 11 11 12 12 12 13 13 13 13 14 15 19 22 21 17 16 16 17 17 16 16 17 18 18 18 19 19 19 20 22 21 19 18 16 16 17 17 16 15 14 12 10 10 10 9 7 7 6 5 4 3 4 5 5 5 5 6 7 8 9 11 13 14 14 14 15 16 17 18
15 15 14 12 12 11 11 11 11 12 11 10 10 9 9 10 10 10 11 11 12 12 12 13 13 13 14 18 21 19 16 15 16 17 17 17 16 17 17 18 19 20 19 19 21 22 22 20 19 18 18 18 18 16 16 15 13 11 9 10 10 8 7 6 6 5 4 4 5 6 6 7 8 9 9 11 12 14 14 15 15 15 16 17 18
13 13 12 11 11 10 10 10 11 11 11 11 10 10 9 9 9 9 10 10 11 11 12 12 13 12 13 17 19 18 16 15 15 16 17 18 18 17 17 19 20 21 20 20 21 22 22 21 19 18 18 18 17 16 15 15 14 11 10 9 10 9 7 6 5 5 4 4 5 7 7 8 9 10 11 12 14 15 15 15 16 16 17 17 18
12 12 11 10 10 9 9 9 10 10 11 11 11 10 9 8 8 8 9 9 10 10 11 11 12 12 12 14 16 17 16 15 15 16 18 19 20 19 19 20 21 21 21 22 22 22 21 20 19 18 19 19 17 15 14 13 13 12 11 10 9 9 8 6 6 5 4 4 5 6 7 7 9 10 12 13 14 15 15 16 17 17 18 18 18
10 10 10 9 8 7 8 8 9 10 11 11 10 9 9 8 7 8 8 8 10 10 10 10 11 11 11 11 12 14 15 15 14 16 19 21 22 22 22 23 22 21 21 22 23 23 23 22 20 19 19 20 19 17 15 13 13 12 12 11 10 10 9 8 7 6 5 4 4 5 6 6 8 10 11 13 14 15 16 16 17 18 18 18 18
9 10 9 8 7 6 6 7 8 9 9 9 10 10 9 8 8 7 7 8 8 9 9 10 10 11 10 10 11 12 14 13 13 15 19 22 23 23 23 23 22 21 21 21 21 22 22 23 21 20 19 19 20 19 17 16 14 14 13 12 11 10 9 8 8 7 7 6 5 5 5 6 8 9 11 12 13 14 15 15 16 16 17 17 17
9 9 8 7 7 6 6 6 7 8 8 8 9 9 9 9 8 8 7 7 8 8 8 8 9 10 10 10 11 12 13 13 13 15 18 21 22 22 22 22 22 21 21 21 21 21 21 21 21 21 19 18 19 20 20 19 17 16 15 14 12 11 10 9 8 8 8 7 7 6 6 8 9 10 10 11 12 12 14 14 14 15 15 15 16
9 8 7 7 7 6 5 5 6 7 7 8 8 8 9 9 9 8 8 8 8 8 8 8 8 9 9 9 10 12 13 13 14 15 17 19 21 21 21 20 20 20 20 20 21 20 20 20 20 20 20 19 18 19 20 19 18 18 17 16 14 13 11 9 9 9 9 9 9 8 8 8 10 10 10 11 11 11 13 13 13 13 14 14 14
9 8 8 8 7 6 5 5 5 6 7 7 8 8 8 8 9 8 8 8 8 8 8 8 8 9 9 9 10 11 13 14 15 16 17 19 21 21 21 20 19 19 19 19 19 19 19 20 19 19 19 19 18 18 18 19 18 17 17 17 15 13 11 10 9 8 8 8 8 8 8 8 9 9 9 10 9 10 11 11 11 11 12 12 12
9 8 8 9 8 7 6 5 5 5 6 7 7 8 8 8 8 8 8 8 8 8 7 8 8 9 9 9 10 11 12 13 14 15 16 17 19 21 21 20 20 19 19 18 18 17 17 18 18 18 18 18 17 17 17 17 17 17 17 16 14 12 11 10 9 7 7 6 6 6 6 6 7 8 8 8 8 8 9 9 10 10 10 10 11
9 8 9 9 9 8 6 5 5 5 5 6 7 7 7 7 8 8 8 8 8 8 8 8 8 8 8 9 10 10 11 12 13 14 14 16 18 20 21 20 20 20 19 18 18 17 16 16 17 17 17 17 17 17 16 16 15 15 15 14 13 11 10 9 8 7 7 6 5 4 4 4 4 4 6 7 7 7 8 8 8 9 9 10 10
Wind_Direction
321 319 318 316 315 315 314 313 312 310 308 307 304 302 300 299 297 296 295 293 291 289 287 285 283 281 279 277 276 275 273 270 266 263 261 260 262 260 259 259 259 257 254 248 243 239 239 240 240 238 238 241 246 251 253 251 251 250 248 249 248 245 243 245 252 260 256 257 258 259 262 261 259 269 276 279 279 271 263 258 255 253 253 250 246
321 319 318 316 316 315 315 314 312 311 309 307 305 303 301 300 299 298 295 293 291 289 286 285 283 281 279 276 275 274 273 272 269 266 262 260 260 260 258 257 258 257 256 253 250 248 246 243 241 239 237 240 246 251 254 253 251 249 246 244 244 244 241 240 247 257 257 255 255 254 256 254 253 261 268 273 277 275 270 263 257 253 253 254 252
320 319 318 316 316 315 314 314 313 311 310 308 306 305 304 303 301 299 296 294 292 289 286 284 282 280 277 275 272 270 269 268 267 266 264 262 260 258 256 253 253 254 254 253 252 251 251 248 243 241 238 238 242 248 252 250 249 249 247 245 243 243 242 239 241 248 255 254 252 253 255 253 250 256 264 269 269 269 269 267 261 257 254 252 253
320 319 317 315 316 315 314 314 313 312 311 309 307 306 305 304 302 299 297 295 292 289 287 284 282 279 277 274 271 269 267 266 264 263 262 260 259 256 254 252 251 253 254 255 251 249 251 252 247 243 241 240 241 246 250 248 246 246 247 246 245 244 243 240 240 244 250 254 252 250 251 253 254 253 257 262 263 263 265 264 261 260 257 254 253
320 319 317 316 316 315 315 315 314 313 312 309 308 306 305 303 301 300 297 295 294 291 288 285 282 279 276 273 271 268 267 266 262 262 262 259 257 256 254 253 253 253 251 250 249 246 246 248 247 245 246 250 250 250 252 250 246 246 247 246 244 245 243 239 239 243 247 249 250 249 248 251 255 251 250 256 258 260 261 259 259 259 259 258 255
319 318 318 317 316 316 316 315 315 314 313 310 308 306 304 302 301 300 297 295 294 291 288 285 281 278 275 273 271 267 265 263 259 259 261 260 258 258 257 258 261 262 255 251 250 246 242 242 244 244 245 249 253 255 257 257 249 244 248 249 245 244 243 239 237 240 244 245 246 246 247 248 248 244 250 255 253 252 254 254 257 258 256 256 256
319 318 317 316 316 316 316 315 315 314 312 309 307 306 304 303 301 299 297 295 293 290 287 284 281 278 275 272 270 267 265 262 258 256 257 257 256 256 256 257 261 265 261 257 256 252 248 245 245 246 246 248 254 258 262 266 257 244 243 249 248 244 243 242 238 239 243 245 245 245 247 248 244 239 248 255 249 244 244 242 248 255 254 252 253
318 317 316 316 316 315 315 314 313 312 310 308 307 306 304 303 300 299 297 293 290 288 286 284 281 278 275 272 269 267 265 262 259 256 254 254 253 253 254 253 255 257 258 258 259 258 257 254 252 252 253 254 257 259 261 266 267 255 243 243 245 242 240 238 236 237 239 241 242 243 244 244 243 237 233 231 231 235 238 235 235 245 251 252 251
317 317 316 315 315 314 314 313 312 312 310 308 307 305 304 303 301 298 296 293 290 287 285 283 281 278 274 272 268 266 263 260 258 255 253 253 251 251 252 252 252 253 253 255 257 257 256 256 256 256 258 258 257 259 261 262 267 269 260 249 243 239 237 236 234 235 237 238 239 239 238 239 241 239 225 210 223 238 239 235 236 241 246 250 251
317 316 315 314 314 314 313 312 311 311 310 308 306 305 304 303 301 299 297 294 291 288 285 281 278 275 273 271 267 264 262 258 256 254 253 252 250 249 251 252 252 252 253 254 254 254 254 255 256 256 257 258 256 257 262 262 262 265 267 262 252 241 235 232 231 236 240 241 239 234 231 233 237 239 234 227 231 238 233 228 236 239 234 236 249
317 316 315 314 314 314 313 312 311 310 309 308 306 305 304 302 301 299 298 296 293 289 286 281 276 273 272 270 267 264 260 258 256 255 254 253 251 248 246 247 249 252 255 254 252 252 251 251 253 254 255 257 257 257 260 263 264 262 263 265 263 255 243 232 228 234 239 242 242 236 229 230 234 237 239 238 234 230 228 228 232 231 220 217 236
316 315 314 314 314 314 314 313 310 309 309 309 307 305 304 302 301 300 298 297 295 291 287 283 278 275 272 269 265 261 259 259 258 257 257 255 252 250 245 240 241 246 252 254 252 251 249 248 248 250 252 254 255 256 259 263 265 262 261 263 263 261 257 246 234 229 234 241 241 236 232 230 232 233 235 237 235 232 229 228 229 227 222 222 229
315 313 313 314 314 315 315 313 310 309 308 309 308 306 304 303 302 301 299 299 296 292 291 290 287 284 279 274 272 269 267 265 262 259 259 256 253 251 247 241 236 237 244 251 252 249 248 247 245 246 248 250 251 253 258 262 264 260 260 263 262 261 259 255 244 235 240 247 245 238 234 232 235 238 236 236 237 236 231 228 229 229 225 229 236
313 312 313 314 314 314 314 313 310 309 309 309 308 305 304 303 303 302 301 300 298 295 296 297 296 293 289 285 283 280 279 278 270 262 260 259 255 252 250 245 239 235 236 243 249 249 247 246 246 245 244 245 247 250 253 257 259 258 259 261 260 259 259 256 250 244 246 251 255 253 247 243 246 248 246 242 238 234 233 234 233 230 230 237 242
313 313 313 314 314 314 314 312 310 309 309 309 308 305 303 303 304 305 303 301 299 297 297 300 301 300 297 293 289 287 289 290 280 268 264 262 258 254 250 245 241 238 236 237 241 244 244 243 244 245 245 243 244 246 249 251 252 252 254 255 255 256 256 254 251 248 246 248 251 253 254 255 256 257 256 254 248 244 244 244 243 241 241 245 244
312 313 314 314 315 314 314 312 309 309 309 309 308 306 304 304 305 306 305 302 300 298 297 300 302 303 301 296 290 290 298 301 290 276 271 267 262 256 249 244 242 239 237 237 237 238 239 239 240 241 243 243 243 243 245 247 247 247 247 248 251 253 254 254 252 247 245 245 246 247 249 254 256 257 257 256 259 263 259 250 247 246 243 239 231
313 314 315 314 314 314 313 311 309 308 309 309 307 306 306 305 305 305 304 303 302 301 301 301 301 300 298 294 290 292 302 311 305 287 277 271 264 257 249 245 243 239 238 241 241 240 240 240 239 239 239 241 242 242 242 242 243 242 240 242 245 247 250 254 253 247 242 242 243 244 246 250 253 257 258 255 259 263 253 240 239 237 229 224 223
314 315 314 313 314 313 312 310 310 308 308 307 306 306 306 305 305 305 303 302 302 302 301 301 301 300 298 294 290 288 297 311 314 298 283 276 266 258 252 250 250 247 243 243 244 245 248 248 243 238 239 243 243 241 240 239 238 236 235 236 238 239 242 247 248 247 242 239 240 242 246 249 250 254 256 255 258 257 242 233 235 230 221 223 231
314 314 313 312 312 312 311 309 308 307 306 306 305 305 305 305 305 305 304 303 303 303 303 302 303 308 311 308 301 294 297 313 326 315 293 284 275 263 255 253 256 257 255 251 247 245 248 251 248 241 242 247 247 242 238 237 236 233 231 231 231 231 236 240 242 242 239 236 237 239 243 246 248 252 254 253 254 252 242 237 236 228 222 226 231
313 312 311 311 311 310 310 308 307 306 305 304 304 304 304 303 305 306 306 306 305 305 305 304 303 309 316 315 312 313 314 323 341 339 313 293 281 266 256 254 258 263 267 268 264 255 251 252 253 248 245 247 247 242 238 236 234 231 229 227 226 227 234 238 239 237 235 234 236 238 242 248 251 254 258 254 250 246 240 238 236 230 226 225 226
312 311 311 311 310 310 309 307 306 305 304 304 304 306 306 305 304 306 307 308 309 308 306 306 307 313 319 319 322 333 339 338 343 348 338 321 303 280 258 252 254 258 261 263 265 268 265 261 260 257 253 251 247 242 238 236 233 231 228 226 226 228 231 235 237 238 236 234 235 236 239 245 247 249 253 251 243 237 233 234 233 230 227 226 223
312 312 311 310 309 309 308 307 307 306 305 305 305 306 308 308 307 308 309 310 311 311 310 315 318 320 324 327 331 341 348 349 351 353 353 349 342 331 311 290 282 276 269 261 256 260 264 266 268 267 263 261 255 247 241 236 232 231 229 228 228 228 230 232 234 235 234 230 230 230 230 233 237 239 242 241 234 226 222 226 229 228 228 228 225
311 311 310 310 309 309 308 309 309 307 305 306 305 306 308 310 310 312 312 311 312 315 319 324 326 325 328 333 336 340 345 348 351 351 350 348 344 341 337 330 323 313 298 283 270 262 260 261 267 271 270 268 265 256 246 236 230 229 229 227 227 228 231 232 231 231 229 227 226 226 225 227 231 232 233 233 227 218 214 219 224 223 224 227 227
311 311 310 309 309 309 309 310 310 308 307 308 308 307 309 311 313 314 313 311 313 319 326 327 328 330 331 332 334 338 341 342 343 344 343 341 338 337 334 329 324 320 311 301 290 280 272 265 265 270 272 271 271 271 258 239 228 224 225 226 227 228 228 227 225 226 228 228 229 229 227 228 229 230 230 227 220 210 205 209 215 215 217 223 224
311 310 309 310 309 309 309 309 309 307 308 310 310 310 312 314 315 316 315 314 319 326 328 328 329 331 332 330 331 333 336 337 338 339 338 337 335 333 330 327 324 320 313 305 299 295 290 285 280 275 271 267 267 274 277 258 234 223 222 223 224 225 225 224 224 224 226 228 231 232 230 229 230 231 228 221 211 201 195 198 203 207 211 216 217
311 310 310 310 310 310 310 310 310 309 311 312 310 311 312 312 314 315 314 317 325 328 325 327 332 332 332 331 330 330 332 334 337 338 337 335 333 330 328 325 323 321 316 307 301 299 297 295 293 286 277 267 259 259 265 264 246 232 227 225 225 224 221 220 221 223 224 226 228 230 230 229 229 228 221 211 203 198 197 197 199 201 206 209 208
312 311 311 312 312 313 312 312 312 312 313 314 312 312 312 310 311 312 311 315 326 327 324 328 335 335 332 331 329 329 331 333 337 339 337 334 331 328 326 325 323 321 318 312 307 304 300 296 295 292 283 271 257 250 252 253 248 242 235 230 231 231 228 225 224 222 221 221 222 224 224 223 220 213 204 199 196 197 199 201 199 199 202 203 200
312 310 311 312 313 314 314 313 314 314 314 314 314 314 314 314 312 311 311 316 325 327 326 331 337 337 335 334 333 332 332 334 337 337 334 332 329 326 325 326 325 322 318 314 309 304 300 296 296 296 291 280 260 244 240 241 243 244 241 238 238 237 238 240 234 223 217 216 216 215 214 214 211 201 195 193 191 192 196 199 199 198 197 193 186
314 311 312 312 312 315 316 314 314 316 315 315 316 314 314 316 316 315 316 323 328 328 328 334 341 342 340 341 339 335 332 333 334 333 332 330 327 325 324 327 327 323 319 317 313 310 309 311 317 325 328 320 298 264 241 233 231 232 234 237 240 239 239 244 239 226 217 213 210 206 203 205 206 199 192 187 187 190 193 194 193 194 193 189 184
316 314 314 313 314 317 316 315 316 317 317 318 320 319 319 320 321 321 323 328 332 332 331 336 344 347 346 344 342 336 332 331 332 333 334 333 329 325 325 330 334 330 326 329 334 339 344 351 358 2 360 354 347 338 326 302 265 243 233 228 229 233 234 237 244 233 218 210 207 202 197 196 196 193 187 181 180 187 191 190 189 189 187 185 183
317 315 314 313 314 316 315 314 317 318 319 322 323 323 325 326 327 330 332 335 338 339 338 340 347 351 350 346 344 340 336 335 335 336 337 337 335 330 328 337 344 341 339 356 16 17 13 13 12 10 9 8 3 355 350 353 351 339 317 266 233 231 233 235 246 243 222 210 204 197 191 188 186 184 183 180 178 180 184 186 188 189 188 186 184
314 312 310 309 312 314 314 315 318 320 323 325 327 327 328 328 329 331 335 339 342 343 343 344 348 351 351 349 347 345 341 339 340 341 341 342 341 336 333 344 354 357 11 38 36 24 18 17 12 10 10 8 3 356 354 356 354 350 350 344 321 291 268 253 252 256 241 216 197 189 186 183 182 182 182 180 177 176 178 182 187 189 188 187 184
312 307 306 308 312 314 314 316 319 322 324 326 328 330 330 329 328 328 331 335 339 343 346 347 348 349 350 349 349 347 344 344 345 346 347 348 347 344 341 347 2 17 37 45 35 22 17 16 13 11 9 4 1 358 357 357 355 355 1 356 332 308 287 270 258 257 264 252 203 186 184 182 181 181 180 179 179 178 177 180 185 186 185 182 177
311 304 303 307 310 312 313 316 319 321 324 327 328 329 329 329 328 328 329 333 336 339 343 345 347 349 348 348 350 350 349 349 349 350 353 353 353 356 358 358 11 27 37 39 31 20 16 13 11 9 5 2 1 359 357 357 357 357 1 0 351 336 311 291 269 252 256 265 238 193 185 183 181 179 177 178 182 183 182 181 181 182 182 180 172
312 306 306 309 311 311 314 317 319 322 325 327 328 328 327 329 331 332 333 334 334 335 337 338 343 347 347 349 351 351 351 352 352 356 1 1 5 17 25 18 15 18 24 25 23 18 15 11 5 3 1 358 358 358 356 356 359 0 1 358 354 354 350 341 317 262 246 245 231 202 190 186 185 182 179 179 182 183 183 183 183 184 184 180 170
314 310 311 315 316 315 314 316 319 324 326 326 327 327 328 331 334 335 336 337 336 336 336 336 338 343 348 352 353 353 354 355 354 358 4 9 18 29 28 16 7 5 8 11 10 9 12 10 2 358 357 356 355 354 352 351 352 355 359 1 2 4 6 3 354 325 254 219 204 197 190 185 184 183 181 180 183 185 184 184 184 184 183 178 171
315 311 312 317 319 318 316 316 318 322 326 328 329 332 333 335 337 337 338 341 341 340 340 340 341 344 350 354 355 355 357 357 359 6 16 22 29 31 24 10 2 1 1 1 0 359 3 6 2 357 354 353 352 350 349 349 351 352 354 0 7 16 21 24 28 32 46 144 174 182 184 182 181 180 178 175 176 179 181 181 181 181 181 178 172
313 307 310 315 318 318 316 317 319 324 329 333 336 338 338 337 338 340 341 342 344 344 344 346 348 349 349 350 351 352 356 0 7 14 19 22 23 21 13 4 2 1 356 355 356 356 356 358 358 356 354 351 349 347 346 345 348 351 354 356 2 15 28 36 40 45 52 65 89 131 158 170 175 179 177 171 169 170 173 174 172 168 168 170 169
312 311 315 317 318 318 317 317 319 325 331 336 339 342 343 342 342 343 343 343 345 347 348 350 352 351 349 349 350 351 353 358 4 5 5 6 9 8 4 1 0 358 354 354 358 360 357 354 352 352 352 354 354 354 352 348 346 349 354 358 3 9 20 33 39 43 53 61 68 86 112 133 153 168 173 172 170 169 167 168 168 164 160 163 165
311 314 318 319 318 318 317 317 319 324 330 335 340 344 346 346 345 344 344 345 346 347 349 351 352 350 350 353 355 355 353 353 355 354 353 356 359 2 2 0 357 354 352 352 356 360 0 358 356 352 351 355 0 3 2 358 355 353 355 2 10 11 13 24 38 47 61 73 78 84 94 105 118 139 156 164 168 168 166 165 166 166 163 161 160
311 311 315 317 317 317 316 316 321 325 327 331 337 342 345 347 345 343 345 346 345 345 347 348 348 347 349 356 0 2 360 354 351 351 352 353 354 358 1 360 356 354 351 350 353 357 358 359 359 355 353 356 0 3 6 8 8 6 2 4 10 14 13 17 29 47 66 84 96 98 99 107 114 122 135 147 155 161 162 159 157 156 155 155 154
309 309 310 310 311 314 316 316 319 323 325 329 335 340 342 344 345 344 344 346 346 345 345 345 346 345 348 357 4 9 8 2 357 353 352 351 352 356 1 2 1 359 356 353 354 357 359 0 359 356 356 359 359 0 4 7 9 14 15 10 11 19 22 18 22 34 54 82 104 108 107 117 129 134 138 145 151 154 154 153 152 150 148 150 152
306 304 302 302 305 309 312 314 318 321 323 324 327 331 337 341 343 345 345 344 345 346 345 344 345 345 348 359 8 11 7 3 2 360 357 355 354 352 354 360 6 8 7 3 0 1 2 2 0 359 2 3 1 1 5 6 7 13 22 22 19 22 27 28 31 36 44 74 109 120 122 128 138 143 144 148 153 154 152 152 154 152 149 149 152
306 299 293 296 302 305 308 313 316 316 318 319 319 323 332 338 341 345 347 344 343 344 344 343 344 343 346 355 4 7 3 359 360 2 4 6 5 1 359 2 7 11 11 9 9 9 9 6 4 4 8 9 9 10 12 12 12 16 24 29 29 29 31 39 47 52 59 86 110 120 123 129 139 144 145 149 153 152 149 150 152 152 150 149 150
299 293 289 292 300 305 308 312 313 312 315 318 318 320 327 333 337 342 345 344 343 341 340 341 343 344 345 348 353 357 359 356 356 0 7 11 12 12 10 10 12 13 13 12 13 15 16 13 11 11 11 14 18 22 23 23 25 27 29 32 34 35 38 43 50 58 69 82 95 102 111 123 134 140 142 147 151 150 148 149 150 150 149 149 148
292 291 289 289 295 303 306 308 310 312 314 316 317 319 323 326 330 335 337 339 340 339 337 339 341 342 345 348 347 350 353 351 351 359 8 12 13 14 15 15 15 15 16 14 14 17 19 18 17 17 17 19 24 28 30 33 35 36 36 36 35 37 43 49 56 63 67 69 75 88 103 116 126 133 137 142 146 147 145 146 147 147 147 149 149
296 294 289 286 292 299 301 303 306 308 310 312 314 316 318 319 322 326 328 331 334 334 333 337 340 340 342 345 345 346 348 348 348 355 5 10 11 12 15 16 15 16 17 16 14 16 18 20 20 21 21 24 28 30 31 34 36 38 39 39 38 41 49 56 62 67 70 71 74 84 98 109 116 123 129 133 137 140 140 140 143 145 147 149 150
296 294 290 288 291 293 294 301 306 307 308 312 312 312 315 316 316 318 323 326 330 332 332 333 336 337 338 341 343 343 345 346 348 353 0 5 8 11 14 15 15 15 16 16 15 14 15 17 19 21 22 24 28 29 29 31 34 37 39 39 39 41 47 55 63 70 74 78 80 85 95 105 111 116 122 127 133 137 139 140 143 146 147 149 152
291 292 289 285 284 285 290 299 304 304 306 310 310 309 312 313 312 314 318 321 324 327 329 330 332 333 334 336 339 341 342 345 348 352 355 359 3 7 11 14 15 15 15 15 15 14 14 13 14 17 18 20 23 25 26 26 29 32 35 35 35 37 40 47 57 67 74 82 89 94 99 107 115 118 121 127 132 137 141 143 146 149 151 154 157
285 285 284 281 278 279 286 294 299 299 299 303 306 306 307 309 309 311 314 317 319 322 324 326 328 330 332 334 336 338 339 341 344 347 349 352 357 2 6 9 11 13 14 14 14 13 13 12 11 11 13 14 16 19 20 21 22 24 24 25 26 31 37 42 48 56 65 75 89 99 104 115 127 130 131 135 139 142 147 151 154 157 160 163 166
276 276 277 277 276 278 281 287 294 296 296 297 300 301 303 305 306 307 309 311 314 317 319 321 323 324 327 330 333 334 336 338 340 343 345 347 353 358 1 3 5 7 8 11 13 14 14 14 12 10 9 8 9 11 12 13 15 16 15 13 14 21 29 35 41 48 56 62 73 91 105 121 139 146 150 154 155 157 162 165 167 171 174 175 178